This is the latest recevied weather packets stored in our database for station/object KC1OEK-13. If no packets are shown the sender has not sent any weather packets the latest 10 day(s).
| Time | Temp. | Humidity | Pressure | Rain* | Wind** | Luminosity | Snow |
|---|---|---|---|---|---|---|---|
| 1778095791 | 15° C | 97% | 1009.1 hPa | 1.78 mm | - | 127 W/m² | - |
| 1778095488 | 15° C | 97% | 1009 hPa | 0 mm | - | 108 W/m² | - |
| 1778095184 | 15° C | 97% | 1009 hPa | 0 mm | - | 133 W/m² | - |
| 1778094881 | 15° C | 97% | 1009 hPa | 1.78 mm | - | 139 W/m² | - |
| 1778094577 | 15° C | 97% | 1009.1 hPa | 0 mm | - | 134 W/m² | - |
| 1778094274 | 15° C | 97% | 1009.1 hPa | 1.27 mm | - | 102 W/m² | - |
| 1778093971 | 15° C | 97% | 1009.1 hPa | 0 mm | - | 111 W/m² | - |
| 1778093669 | 15° C | 96% | 1009.3 hPa | 0 mm | - | 84 W/m² | - |
| 1778093365 | 15° C | 96% | 1009.3 hPa | 0 mm | - | 125 W/m² | - |
| 1778093062 | 15° C | 97% | 1009.3 hPa | 0 mm | - | 150 W/m² | - |
| 1778092760 | 15° C | 97% | 1009.4 hPa | 0 mm | - | 130 W/m² | - |
| 1778092455 | 15° C | 96% | 1009.4 hPa | 0 mm | - | 105 W/m² | - |
| 1778092153 | 15° C | 96% | 1009.7 hPa | 0 mm | - | 144 W/m² | - |
| 1778091849 | 15° C | 96% | 1009.5 hPa | 1.78 mm | - | 176 W/m² | - |
| 1778091547 | 15° C | 96% | 1009.7 hPa | 1.78 mm | - | 129 W/m² | - |
| 1778091244 | 15° C | 95% | 1009.9 hPa | 0 mm | - | 120 W/m² | - |
| 1778090941 | 15° C | 95% | 1009.7 hPa | 1.27 mm | - | 147 W/m² | - |
| 1778090637 | 15° C | 95% | 1009.7 hPa | 1.27 mm | - | 126 W/m² | - |
| 1778090334 | 15° C | 95% | 1009.5 hPa | 0 mm | - | 105 W/m² | - |
| 1778090031 | 15° C | 94% | 1009.6 hPa | 0 mm | - | 110 W/m² | - |
| 1778089728 | 15° C | 93% | 1009.5 hPa | 0 mm | - | 115 W/m² | - |
| 1778089425 | 15° C | 93% | 1009.7 hPa | 0 mm | - | 133 W/m² | - |
| 1778089123 | 15° C | 93% | 1009.6 hPa | 1.78 mm | - | 126 W/m² | - |
| 1778088819 | 15.56° C | 92% | 1009.7 hPa | 0 mm | - | 142 W/m² | - |
| 1778088517 | 15.56° C | 91% | 1009.7 hPa | 1.27 mm | - | 114 W/m² | - |
* Rain latest hour (hover to see other rain measurements)
** Current wind speed in m/s (hover to see current wind gust speed)